Location: RapidEye Observatory
(35.3653°N, 79.2300°W)
Time: 19:29:40
(UTC-05:00)

N. Korean satellite - Visible Passes

Search period start: 21 January 2018 00:00
Search period end: 31 January 2018 00:00
Orbit: 458 x 515 km, 97.2° (Epoch: 20 January)

Date Brightness Start Highest point End Pass type
(mag) Time Alt. Az. Time Alt. Az. Time Alt. Az.
21 Jan 8.8 06:27:05 10° NE 06:30:09 29° E 06:33:12 10° SSE visible
21 Jan 7.5 18:33:05 10° S 18:36:36 51° W 18:40:05 10° NNW visible
22 Jan 9.9 06:04:27 10° ENE 06:06:22 14° E 06:08:17 10° SE visible
22 Jan 6.5 18:09:23 10° SSE 18:12:57 69° ENE 18:16:29 10° N visible
23 Jan 10.1 19:21:31 10° WSW 19:22:55 12° W 19:24:19 10° WNW visible
24 Jan 7.0 06:49:12 10° NNE 06:52:39 65° E 06:56:06 10° S visible
24 Jan 9.1 18:56:11 10° SSW 18:59:07 24° W 19:02:04 10° NW visible
25 Jan 8.8 06:25:54 10° NE 06:28:56 28° E 06:31:59 10° SSE visible
25 Jan 7.4 18:31:55 10° S 18:35:25 52° W 18:38:52 10° NNW visible
26 Jan 9.9 06:03:16 10° ENE 06:05:09 14° E 06:07:01 10° SE visible
26 Jan 6.5 18:08:13 10° SSE 18:11:45 67° ENE 18:15:14 10° N visible
27 Jan 10.1 19:20:15 10° WSW 19:21:41 12° W 19:23:07 10° WNW visible
28 Jan 7.1 06:47:57 10° NNE 06:51:25 63° E 06:54:53 10° S visible
28 Jan 9.1 18:54:57 10° SSW 18:57:54 24° W 19:00:50 10° NW visible
29 Jan 8.9 06:24:38 10° NE 06:27:41 28° E 06:30:45 10° SSE visible
29 Jan 7.4 18:30:42 10° S 18:34:10 54° W 18:37:36 10° NNW visible
30 Jan 10.0 06:02:03 10° ENE 06:03:53 14° E 06:05:45 10° SE visible
30 Jan 6.5 18:07:01 10° SSE 18:10:30 64° ENE 18:13:57 10° N visible
